owner,sensor,date,latitude,longitude,vertical_datum,sea_water_temperature,qcFlag 
TABS,ioos:station:wmo:42047:1,2009-08-01T00:30:00Z,27.8966,-93.5973,-2.0,27.21,2 
TABS,ioos:station:wmo:42047:1,2009-08-01T01:00:00Z,27.8966,-93.5973,-2.0,26.93,2 
TABS,ioos:station:wmo:42047:1,2009-08-01T01:30:00Z,27.8966,-93.5973,-2.0,26.62,2 
TABS,ioos:station:wmo:42047:1,2009-08-01T02:00:00Z,27.8966,-93.5973,-2.0,26.34,2 
TABS,ioos:station:wmo:42047:1,2009-08-01T02:30:00Z,27.8966,-93.5973,-2.0,26.1,2 
TABS,ioos:station:wmo:42047:1,2009-08-01T03:00:00Z,27.8966,-93.5973,-2.0,25.89,2 
TABS,ioos:station:wmo:42047:1,2009-08-01T03:30:00Z,27.8966,-93.5973,-2.0,25.7,2 
TABS,ioos:station:wmo:42047:1,2009-08-01T04:00:00Z,27.8966,-93.5973,-2.0,25.57,2 
TABS,ioos:station:wmo:42047:1,2009-08-01T04:30:00Z,27.8966,-93.5973,-2.0,25.46,2 
TABS,ioos:station:wmo:42047:1,2009-08-01T05:00:00Z,27.8966,-93.5973,-2.0,25.39,2 
TABS,ioos:station:wmo:42047:1,2009-08-01T05:30:00Z,27.8966,-93.5973,-2.0,25.35,2 
TABS,ioos:station:wmo:42047:1,2009-08-01T06:00:00Z,27.8966,-93.5973,-2.0,25.31,2 
TABS,ioos:station:wmo:42047:1,2009-08-01T06:30:00Z,27.8966,-93.5973,-2.0,25.27,2 
TABS,ioos:station:wmo:42047:1,2009-08-01T07:00:00Z,27.8966,-93.5973,-2.0,25.22,2 
TABS,ioos:station:wmo:42047:1,2009-08-01T07:30:00Z,27.8966,-93.5973,-2.0,25.18,2 
TABS,ioos:station:wmo:42047:1,2009-08-01T08:00:00Z,27.8966,-93.5973,-2.0,25.14,2 
TABS,ioos:station:wmo:42047:1,2009-08-01T08:30:00Z,27.8966,-93.5973,-2.0,25.12,2 
TABS,ioos:station:wmo:42047:1,2009-08-01T09:00:00Z,27.8966,-93.5973,-2.0,25.12,2 
TABS,ioos:station:wmo:42047:1,2009-08-01T09:30:00Z,27.8966,-93.5973,-2.0,25.12,2 
TABS,ioos:station:wmo:42047:1,2009-08-01T10:00:00Z,27.8966,-93.5973,-2.0,25.12,2 
TABS,ioos:station:wmo:42047:1,2009-08-01T10:30:00Z,27.8966,-93.5973,-2.0,25.14,2 
TABS,ioos:station:wmo:42047:1,2009-08-01T11:00:00Z,27.8966,-93.5973,-2.0,25.15,2 
TABS,ioos:station:wmo:42047:1,2009-08-01T11:30:00Z,27.8966,-93.5973,-2.0,25.16,2 
TABS,ioos:station:wmo:42047:1,2009-08-01T12:00:00Z,27.8966,-93.5973,-2.0,25.17,2 
TABS,ioos:station:wmo:42047:1,2009-08-01T12:30:00Z,27.8966,-93.5973,-2.0,25.19,2 
TABS,ioos:station:wmo:42047:1,2009-08-01T13:00:00Z,27.8966,-93.5973,-2.0,25.24,2 
TABS,ioos:station:wmo:42047:1,2009-08-01T13:30:00Z,27.8966,-93.5973,-2.0,25.36,2 
TABS,ioos:station:wmo:42047:1,2009-08-01T14:00:00Z,27.8966,-93.5973,-2.0,25.53,2 
TABS,ioos:station:wmo:42047:1,2009-08-01T14:30:00Z,27.8966,-93.5973,-2.0,25.86,2 
TABS,ioos:station:wmo:42047:1,2009-08-01T15:00:00Z,27.8966,-93.5973,-2.0,26.38,2 
TABS,ioos:station:wmo:42047:1,2009-08-01T15:30:00Z,27.8966,-93.5973,-2.0,27.0,2 
TABS,ioos:station:wmo:42047:1,2009-08-01T16:00:00Z,27.8966,-93.5973,-2.0,27.65,2 
TABS,ioos:station:wmo:42047:1,2009-08-01T16:30:00Z,27.8966,-93.5973,-2.0,28.32,2 
TABS,ioos:station:wmo:42047:1,2009-08-01T17:00:00Z,27.8966,-93.5973,-2.0,29.09,2 
TABS,ioos:station:wmo:42047:1,2009-08-01T17:30:00Z,27.8966,-93.5973,-2.0,29.9,2 
TABS,ioos:station:wmo:42047:1,2009-08-01T18:00:00Z,27.8966,-93.5973,-2.0,30.48,2 
TABS,ioos:station:wmo:42047:1,2009-08-01T18:30:00Z,27.8966,-93.5973,-2.0,30.97,2 
TABS,ioos:station:wmo:42047:1,2009-08-01T19:00:00Z,27.8966,-93.5973,-2.0,31.5,2 
TABS,ioos:station:wmo:42047:1,2009-08-01T19:30:00Z,27.8966,-93.5973,-2.0,32.3,2 
TABS,ioos:station:wmo:42047:1,2009-08-01T20:00:00Z,27.8966,-93.5973,-2.0,33.58,2 
TABS,ioos:station:wmo:42047:1,2009-08-01T20:30:00Z,27.8966,-93.5973,-2.0,34.98,2 
TABS,ioos:station:wmo:42047:1,2009-08-01T21:00:00Z,27.8966,-93.5973,-2.0,36.19,2 
TABS,ioos:station:wmo:42047:1,2009-08-01T21:30:00Z,27.8966,-93.5973,-2.0,37.17,2 
TABS,ioos:station:wmo:42047:1,2009-08-01T22:00:00Z,27.8966,-93.5973,-2.0,38.02,2 
TABS,ioos:station:wmo:42047:1,2009-08-01T22:30:00Z,27.8966,-93.5973,-2.0,38.64,2 
TABS,ioos:station:wmo:42047:1,2009-08-01T23:00:00Z,27.8966,-93.5973,-2.0,38.97,2 
TABS,ioos:station:wmo:42047:1,2009-08-01T23:30:00Z,27.8966,-93.5973,-2.0,39.05,2 
TABS,ioos:station:wmo:42047:1,2009-08-02T01:00:00Z,27.8966,-93.5973,-2.0,36.72,2 
TABS,ioos:station:wmo:42047:1,2009-08-02T01:30:00Z,27.8966,-93.5973,-2.0,35.74,2 
TABS,ioos:station:wmo:42047:1,2009-08-02T02:00:00Z,27.8966,-93.5973,-2.0,34.81,2 
TABS,ioos:station:wmo:42047:1,2009-08-02T02:30:00Z,27.8966,-93.5973,-2.0,33.93,2 
TABS,ioos:station:wmo:42047:1,2009-08-02T03:00:00Z,27.8966,-93.5973,-2.0,33.17,2 
TABS,ioos:station:wmo:42047:1,2009-08-02T03:30:00Z,27.8966,-93.5973,-2.0,32.26,2 
TABS,ioos:station:wmo:42047:1,2009-08-02T04:00:00Z,27.8966,-93.5973,-2.0,31.22,2 
TABS,ioos:station:wmo:42047:1,2009-08-02T04:30:00Z,27.8966,-93.5973,-2.0,30.2,2 
TABS,ioos:station:wmo:42047:1,2009-08-02T05:00:00Z,27.8966,-93.5973,-2.0,29.29,2 
TABS,ioos:station:wmo:42047:1,2009-08-02T05:30:00Z,27.8966,-93.5973,-2.0,28.61,2 
TABS,ioos:station:wmo:42047:1,2009-08-02T06:00:00Z,27.8966,-93.5973,-2.0,28.1,2 
TABS,ioos:station:wmo:42047:1,2009-08-02T06:30:00Z,27.8966,-93.5973,-2.0,27.75,2 
TABS,ioos:station:wmo:42047:1,2009-08-02T07:00:00Z,27.8966,-93.5973,-2.0,27.51,2 
TABS,ioos:station:wmo:42047:1,2009-08-02T07:30:00Z,27.8966,-93.5973,-2.0,27.31,2 
TABS,ioos:station:wmo:42047:1,2009-08-02T08:00:00Z,27.8966,-93.5973,-2.0,27.12,2 
TABS,ioos:station:wmo:42047:1,2009-08-02T08:30:00Z,27.8966,-93.5973,-2.0,26.95,2 
TABS,ioos:station:wmo:42047:1,2009-08-02T09:00:00Z,27.8966,-93.5973,-2.0,26.78,2 
TABS,ioos:station:wmo:42047:1,2009-08-02T09:30:00Z,27.8966,-93.5973,-2.0,26.63,2 
TABS,ioos:station:wmo:42047:1,2009-08-02T10:00:00Z,27.8966,-93.5973,-2.0,26.49,2 
TABS,ioos:station:wmo:42047:1,2009-08-02T10:30:00Z,27.8966,-93.5973,-2.0,26.35,2 
TABS,ioos:station:wmo:42047:1,2009-08-02T11:00:00Z,27.8966,-93.5973,-2.0,26.24,2 
TABS,ioos:station:wmo:42047:1,2009-08-02T11:30:00Z,27.8966,-93.5973,-2.0,26.14,2 
TABS,ioos:station:wmo:42047:1,2009-08-02T12:00:00Z,27.8966,-93.5973,-2.0,26.07,2 
TABS,ioos:station:wmo:42047:1,2009-08-02T12:30:00Z,27.8966,-93.5973,-2.0,26.01,2 
TABS,ioos:station:wmo:42047:1,2009-08-02T13:00:00Z,27.8966,-93.5973,-2.0,25.99,2 
TABS,ioos:station:wmo:42047:1,2009-08-02T13:30:00Z,27.8966,-93.5973,-2.0,25.98,2 
TABS,ioos:station:wmo:42047:1,2009-08-02T14:00:00Z,27.8966,-93.5973,-2.0,26.01,2 
TABS,ioos:station:wmo:42047:1,2009-08-02T14:30:00Z,27.8966,-93.5973,-2.0,26.07,2 
TABS,ioos:station:wmo:42047:1,2009-08-02T15:00:00Z,27.8966,-93.5973,-2.0,26.25,2 
TABS,ioos:station:wmo:42047:1,2009-08-02T15:30:00Z,27.8966,-93.5973,-2.0,26.45,2 
TABS,ioos:station:wmo:42047:1,2009-08-02T16:00:00Z,27.8966,-93.5973,-2.0,26.67,2 
TABS,ioos:station:wmo:42047:1,2009-08-02T16:30:00Z,27.8966,-93.5973,-2.0,26.94,2 
TABS,ioos:station:wmo:42047:1,2009-08-02T17:00:00Z,27.8966,-93.5973,-2.0,27.23,2 
TABS,ioos:station:wmo:42047:1,2009-08-02T17:30:00Z,27.8966,-93.5973,-2.0,27.61,2 
TABS,ioos:station:wmo:42047:1,2009-08-02T18:00:00Z,27.8966,-93.5973,-2.0,28.12,2 
TABS,ioos:station:wmo:42047:1,2009-08-02T18:30:00Z,27.8966,-93.5973,-2.0,28.59,2 
TABS,ioos:station:wmo:42047:1,2009-08-02T19:00:00Z,27.8966,-93.5973,-2.0,28.96,2 
TABS,ioos:station:wmo:42047:1,2009-08-02T19:30:00Z,27.8966,-93.5973,-2.0,29.19,2 
TABS,ioos:station:wmo:42047:1,2009-08-02T20:00:00Z,27.8966,-93.5973,-2.0,29.48,2 
TABS,ioos:station:wmo:42047:1,2009-08-02T20:30:00Z,27.8966,-93.5973,-2.0,29.83,2 
TABS,ioos:station:wmo:42047:1,2009-08-02T21:00:00Z,27.8966,-93.5973,-2.0,30.21,2 
TABS,ioos:station:wmo:42047:1,2009-08-02T21:30:00Z,27.8966,-93.5973,-2.0,30.52,2 
TABS,ioos:station:wmo:42047:1,2009-08-02T22:00:00Z,27.8966,-93.5973,-2.0,30.83,2 
TABS,ioos:station:wmo:42047:1,2009-08-02T22:30:00Z,27.8966,-93.5973,-2.0,31.25,2 
TABS,ioos:station:wmo:42047:1,2009-08-02T23:00:00Z,27.8966,-93.5973,-2.0,32.25,2 
TABS,ioos:station:wmo:42047:1,2009-08-02T23:30:00Z,27.8966,-93.5973,-2.0,32.91,2 
TABS,ioos:station:wmo:42047:1,2009-08-03T00:30:00Z,27.8966,-93.5973,-2.0,33.4,2 
TABS,ioos:station:wmo:42047:1,2009-08-03T01:00:00Z,27.8966,-93.5973,-2.0,33.02,2 
TABS,ioos:station:wmo:42047:1,2009-08-03T01:30:00Z,27.8966,-93.5973,-2.0,32.4,2 
TABS,ioos:station:wmo:42047:1,2009-08-03T02:00:00Z,27.8966,-93.5973,-2.0,31.72,2 
TABS,ioos:station:wmo:42047:1,2009-08-03T02:30:00Z,27.8966,-93.5973,-2.0,31.1,2 
TABS,ioos:station:wmo:42047:1,2009-08-03T03:00:00Z,27.8966,-93.5973,-2.0,30.53,2 
TABS,ioos:station:wmo:42047:1,2009-08-03T03:30:00Z,27.8966,-93.5973,-2.0,29.98,2 
TABS,ioos:station:wmo:42047:1,2009-08-03T04:00:00Z,27.8966,-93.5973,-2.0,29.52,2 
TABS,ioos:station:wmo:42047:1,2009-08-03T04:30:00Z,27.8966,-93.5973,-2.0,29.11,2 
TABS,ioos:station:wmo:42047:1,2009-08-03T05:00:00Z,27.8966,-93.5973,-2.0,28.72,2 
TABS,ioos:station:wmo:42047:1,2009-08-03T05:30:00Z,27.8966,-93.5973,-2.0,28.32,2 
TABS,ioos:station:wmo:42047:1,2009-08-03T06:00:00Z,27.8966,-93.5973,-2.0,27.94,2 
TABS,ioos:station:wmo:42047:1,2009-08-03T06:30:00Z,27.8966,-93.5973,-2.0,27.59,2 
TABS,ioos:station:wmo:42047:1,2009-08-03T07:00:00Z,27.8966,-93.5973,-2.0,27.25,2 
TABS,ioos:station:wmo:42047:1,2009-08-03T07:30:00Z,27.8966,-93.5973,-2.0,26.91,2 
TABS,ioos:station:wmo:42047:1,2009-08-03T08:00:00Z,27.8966,-93.5973,-2.0,26.56,2 
TABS,ioos:station:wmo:42047:1,2009-08-03T08:30:00Z,27.8966,-93.5973,-2.0,26.22,2 
TABS,ioos:station:wmo:42047:1,2009-08-03T09:00:00Z,27.8966,-93.5973,-2.0,25.89,2 
TABS,ioos:station:wmo:42047:1,2009-08-03T09:30:00Z,27.8966,-93.5973,-2.0,25.58,2 
TABS,ioos:station:wmo:42047:1,2009-08-03T10:00:00Z,27.8966,-93.5973,-2.0,25.29,2 
TABS,ioos:station:wmo:42047:1,2009-08-03T10:30:00Z,27.8966,-93.5973,-2.0,25.01,2 
TABS,ioos:station:wmo:42047:1,2009-08-03T11:00:00Z,27.8966,-93.5973,-2.0,24.75,2 
TABS,ioos:station:wmo:42047:1,2009-08-03T11:30:00Z,27.8966,-93.5973,-2.0,24.53,2 
TABS,ioos:station:wmo:42047:1,2009-08-03T12:00:00Z,27.8966,-93.5973,-2.0,24.37,2 
TABS,ioos:station:wmo:42047:1,2009-08-03T12:30:00Z,27.8966,-93.5973,-2.0,24.27,2 
TABS,ioos:station:wmo:42047:1,2009-08-03T13:00:00Z,27.8966,-93.5973,-2.0,24.29,2 
TABS,ioos:station:wmo:42047:1,2009-08-03T13:30:00Z,27.8966,-93.5973,-2.0,24.38,2 
TABS,ioos:station:wmo:42047:1,2009-08-03T14:00:00Z,27.8966,-93.5973,-2.0,24.56,2 
TABS,ioos:station:wmo:42047:1,2009-08-03T14:30:00Z,27.8966,-93.5973,-2.0,24.92,2 
TABS,ioos:station:wmo:42047:1,2009-08-03T15:00:00Z,27.8966,-93.5973,-2.0,25.45,2 
TABS,ioos:station:wmo:42047:1,2009-08-03T15:30:00Z,27.8966,-93.5973,-2.0,26.04,2 
TABS,ioos:station:wmo:42047:1,2009-08-03T16:00:00Z,27.8966,-93.5973,-2.0,26.61,2 
TABS,ioos:station:wmo:42047:1,2009-08-03T16:30:00Z,27.8966,-93.5973,-2.0,27.18,2 
TABS,ioos:station:wmo:42047:1,2009-08-03T17:00:00Z,27.8966,-93.5973,-2.0,27.85,2 
TABS,ioos:station:wmo:42047:1,2009-08-03T17:30:00Z,27.8966,-93.5973,-2.0,28.71,2 
TABS,ioos:station:wmo:42047:1,2009-08-03T18:00:00Z,27.8966,-93.5973,-2.0,29.45,2 
TABS,ioos:station:wmo:42047:1,2009-08-03T18:30:00Z,27.8966,-93.5973,-2.0,30.01,2 
TABS,ioos:station:wmo:42047:1,2009-08-03T19:00:00Z,27.8966,-93.5973,-2.0,30.68,2 
TABS,ioos:station:wmo:42047:1,2009-08-03T19:30:00Z,27.8966,-93.5973,-2.0,31.72,2 
TABS,ioos:station:wmo:42047:1,2009-08-03T20:00:00Z,27.8966,-93.5973,-2.0,33.24,2 
TABS,ioos:station:wmo:42047:1,2009-08-03T20:30:00Z,27.8966,-93.5973,-2.0,34.77,2 
TABS,ioos:station:wmo:42047:1,2009-08-03T21:00:00Z,27.8966,-93.5973,-2.0,35.99,2 
TABS,ioos:station:wmo:42047:1,2009-08-03T21:30:00Z,27.8966,-93.5973,-2.0,37.13,2 
TABS,ioos:station:wmo:42047:1,2009-08-03T22:00:00Z,27.8966,-93.5973,-2.0,38.07,2 
TABS,ioos:station:wmo:42047:1,2009-08-03T22:30:00Z,27.8966,-93.5973,-2.0,38.61,2 
TABS,ioos:station:wmo:42047:1,2009-08-03T23:00:00Z,27.8966,-93.5973,-2.0,38.9,2 
TABS,ioos:station:wmo:42047:1,2009-08-03T23:30:00Z,27.8966,-93.5973,-2.0,38.45,2 
TABS,ioos:station:wmo:42047:1,2009-08-04T00:00:00Z,27.8966,-93.5973,-2.0,37.82,2 
TABS,ioos:station:wmo:42047:1,2009-08-04T00:30:00Z,27.8966,-93.5973,-2.0,37.14,2 
TABS,ioos:station:wmo:42047:1,2009-08-04T01:00:00Z,27.8966,-93.5973,-2.0,36.22,2 
TABS,ioos:station:wmo:42047:1,2009-08-04T01:30:00Z,27.8966,-93.5973,-2.0,35.23,2 
TABS,ioos:station:wmo:42047:1,2009-08-04T02:00:00Z,27.8966,-93.5973,-2.0,34.37,2 
TABS,ioos:station:wmo:42047:1,2009-08-04T02:30:00Z,27.8966,-93.5973,-2.0,33.52,2 
TABS,ioos:station:wmo:42047:1,2009-08-04T03:00:00Z,27.8966,-93.5973,-2.0,32.7,2 
TABS,ioos:station:wmo:42047:1,2009-08-04T03:30:00Z,27.8966,-93.5973,-2.0,31.93,2 
TABS,ioos:station:wmo:42047:1,2009-08-04T04:00:00Z,27.8966,-93.5973,-2.0,31.24,2 
TABS,ioos:station:wmo:42047:1,2009-08-04T04:30:00Z,27.8966,-93.5973,-2.0,30.58,2 
TABS,ioos:station:wmo:42047:1,2009-08-04T05:00:00Z,27.8966,-93.5973,-2.0,29.96,2 
TABS,ioos:station:wmo:42047:1,2009-08-04T05:30:00Z,27.8966,-93.5973,-2.0,29.36,2 
TABS,ioos:station:wmo:42047:1,2009-08-04T06:00:00Z,27.8966,-93.5973,-2.0,28.77,2 
TABS,ioos:station:wmo:42047:1,2009-08-04T06:30:00Z,27.8966,-93.5973,-2.0,28.25,2 
TABS,ioos:station:wmo:42047:1,2009-08-04T07:00:00Z,27.8966,-93.5973,-2.0,27.8,2 
TABS,ioos:station:wmo:42047:1,2009-08-04T07:30:00Z,27.8966,-93.5973,-2.0,27.39,2 
TABS,ioos:station:wmo:42047:1,2009-08-04T08:00:00Z,27.8966,-93.5973,-2.0,27.03,2 
TABS,ioos:station:wmo:42047:1,2009-08-04T08:30:00Z,27.8966,-93.5973,-2.0,26.68,2 
TABS,ioos:station:wmo:42047:1,2009-08-04T09:00:00Z,27.8966,-93.5973,-2.0,26.35,2 
TABS,ioos:station:wmo:42047:1,2009-08-04T09:30:00Z,27.8966,-93.5973,-2.0,26.06,2 
TABS,ioos:station:wmo:42047:1,2009-08-04T10:00:00Z,27.8966,-93.5973,-2.0,25.81,2 
TABS,ioos:station:wmo:42047:1,2009-08-04T10:30:00Z,27.8966,-93.5973,-2.0,25.56,2 
TABS,ioos:station:wmo:42047:1,2009-08-04T11:00:00Z,27.8966,-93.5973,-2.0,25.34,2 
TABS,ioos:station:wmo:42047:1,2009-08-04T11:30:00Z,27.8966,-93.5973,-2.0,25.15,2 
TABS,ioos:station:wmo:42047:1,2009-08-04T12:00:00Z,27.8966,-93.5973,-2.0,24.98,2 
TABS,ioos:station:wmo:42047:1,2009-08-04T12:30:00Z,27.8966,-93.5973,-2.0,24.86,2 
TABS,ioos:station:wmo:42047:1,2009-08-04T13:00:00Z,27.8966,-93.5973,-2.0,24.85,2 
TABS,ioos:station:wmo:42047:1,2009-08-04T13:30:00Z,27.8966,-93.5973,-2.0,24.94,2 
TABS,ioos:station:wmo:42047:1,2009-08-04T14:00:00Z,27.8966,-93.5973,-2.0,25.15,2 
TABS,ioos:station:wmo:42047:1,2009-08-04T14:30:00Z,27.8966,-93.5973,-2.0,25.55,2 
TABS,ioos:station:wmo:42047:1,2009-08-04T15:00:00Z,27.8966,-93.5973,-2.0,25.97,2 
TABS,ioos:station:wmo:42047:1,2009-08-04T15:30:00Z,27.8966,-93.5973,-2.0,26.57,2 
TABS,ioos:station:wmo:42047:1,2009-08-04T16:00:00Z,27.8966,-93.5973,-2.0,27.27,2 
TABS,ioos:station:wmo:42047:1,2009-08-04T16:30:00Z,27.8966,-93.5973,-2.0,27.98,2 
TABS,ioos:station:wmo:42047:1,2009-08-04T17:00:00Z,27.8966,-93.5973,-2.0,28.83,2 
TABS,ioos:station:wmo:42047:1,2009-08-04T17:30:00Z,27.8966,-93.5973,-2.0,29.66,2 
TABS,ioos:station:wmo:42047:1,2009-08-04T18:00:00Z,27.8966,-93.5973,-2.0,30.42,2 
TABS,ioos:station:wmo:42047:1,2009-08-04T18:30:00Z,27.8966,-93.5973,-2.0,31.07,2 
TABS,ioos:station:wmo:42047:1,2009-08-04T19:00:00Z,27.8966,-93.5973,-2.0,31.77,2 
TABS,ioos:station:wmo:42047:1,2009-08-04T19:30:00Z,27.8966,-93.5973,-2.0,32.53,2 
TABS,ioos:station:wmo:42047:1,2009-08-04T20:00:00Z,27.8966,-93.5973,-2.0,33.86,2 
TABS,ioos:station:wmo:42047:1,2009-08-04T20:30:00Z,27.8966,-93.5973,-2.0,35.24,2 
TABS,ioos:station:wmo:42047:1,2009-08-04T21:00:00Z,27.8966,-93.5973,-2.0,36.58,2 
TABS,ioos:station:wmo:42047:1,2009-08-04T21:30:00Z,27.8966,-93.5973,-2.0,37.63,2 
TABS,ioos:station:wmo:42047:1,2009-08-04T22:00:00Z,27.8966,-93.5973,-2.0,38.1,2 
TABS,ioos:station:wmo:42047:1,2009-08-04T22:30:00Z,27.8966,-93.5973,-2.0,38.66,2 
TABS,ioos:station:wmo:42047:1,2009-08-04T23:00:00Z,27.8966,-93.5973,-2.0,39.05,2 
TABS,ioos:station:wmo:42047:1,2009-08-04T23:30:00Z,27.8966,-93.5973,-2.0,39.14,2 
TABS,ioos:station:wmo:42047:1,2009-08-05T00:00:00Z,27.8966,-93.5973,-2.0,38.81,2 
TABS,ioos:station:wmo:42047:1,2009-08-05T00:30:00Z,27.8966,-93.5973,-2.0,38.16,2 
TABS,ioos:station:wmo:42047:1,2009-08-05T01:00:00Z,27.8966,-93.5973,-2.0,37.2,2 
TABS,ioos:station:wmo:42047:1,2009-08-05T01:30:00Z,27.8966,-93.5973,-2.0,35.99,2 
TABS,ioos:station:wmo:42047:1,2009-08-05T02:00:00Z,27.8966,-93.5973,-2.0,34.84,2 
TABS,ioos:station:wmo:42047:1,2009-08-05T02:30:00Z,27.8966,-93.5973,-2.0,33.86,2 
TABS,ioos:station:wmo:42047:1,2009-08-05T03:00:00Z,27.8966,-93.5973,-2.0,32.98,2 
TABS,ioos:station:wmo:42047:1,2009-08-05T03:30:00Z,27.8966,-93.5973,-2.0,32.26,2 
TABS,ioos:station:wmo:42047:1,2009-08-05T04:00:00Z,27.8966,-93.5973,-2.0,31.62,2 
TABS,ioos:station:wmo:42047:1,2009-08-05T04:30:00Z,27.8966,-93.5973,-2.0,31.03,2 
TABS,ioos:station:wmo:42047:1,2009-08-05T05:00:00Z,27.8966,-93.5973,-2.0,30.47,2 
TABS,ioos:station:wmo:42047:1,2009-08-05T05:30:00Z,27.8966,-93.5973,-2.0,29.99,2 
TABS,ioos:station:wmo:42047:1,2009-08-05T06:00:00Z,27.8966,-93.5973,-2.0,29.53,2 
TABS,ioos:station:wmo:42047:1,2009-08-05T06:30:00Z,27.8966,-93.5973,-2.0,29.08,2 
TABS,ioos:station:wmo:42047:1,2009-08-05T07:00:00Z,27.8966,-93.5973,-2.0,28.64,2 
TABS,ioos:station:wmo:42047:1,2009-08-05T07:30:00Z,27.8966,-93.5973,-2.0,28.23,2 
TABS,ioos:station:wmo:42047:1,2009-08-05T08:00:00Z,27.8966,-93.5973,-2.0,27.89,2 
TABS,ioos:station:wmo:42047:1,2009-08-05T08:30:00Z,27.8966,-93.5973,-2.0,27.53,2 
TABS,ioos:station:wmo:42047:1,2009-08-05T09:00:00Z,27.8966,-93.5973,-2.0,27.19,2 
TABS,ioos:station:wmo:42047:1,2009-08-05T09:30:00Z,27.8966,-93.5973,-2.0,26.87,2 
TABS,ioos:station:wmo:42047:1,2009-08-05T10:00:00Z,27.8966,-93.5973,-2.0,26.57,2 
TABS,ioos:station:wmo:42047:1,2009-08-05T10:30:00Z,27.8966,-93.5973,-2.0,26.27,2 
TABS,ioos:station:wmo:42047:1,2009-08-05T11:00:00Z,27.8966,-93.5973,-2.0,25.98,2 
TABS,ioos:station:wmo:42047:1,2009-08-05T11:30:00Z,27.8966,-93.5973,-2.0,25.74,2 
TABS,ioos:station:wmo:42047:1,2009-08-05T12:00:00Z,27.8966,-93.5973,-2.0,25.53,2 
TABS,ioos:station:wmo:42047:1,2009-08-05T12:30:00Z,27.8966,-93.5973,-2.0,25.4,2 
TABS,ioos:station:wmo:42047:1,2009-08-05T13:00:00Z,27.8966,-93.5973,-2.0,25.39,2 
TABS,ioos:station:wmo:42047:1,2009-08-05T13:30:00Z,27.8966,-93.5973,-2.0,25.48,2 
TABS,ioos:station:wmo:42047:1,2009-08-05T14:00:00Z,27.8966,-93.5973,-2.0,25.71,2 
TABS,ioos:station:wmo:42047:1,2009-08-05T14:30:00Z,27.8966,-93.5973,-2.0,26.0,2 
TABS,ioos:station:wmo:42047:1,2009-08-05T15:00:00Z,27.8966,-93.5973,-2.0,26.47,2 
TABS,ioos:station:wmo:42047:1,2009-08-05T15:30:00Z,27.8966,-93.5973,-2.0,27.03,2 
TABS,ioos:station:wmo:42047:1,2009-08-05T16:00:00Z,27.8966,-93.5973,-2.0,27.41,2 
TABS,ioos:station:wmo:42047:1,2009-08-05T16:30:00Z,27.8966,-93.5973,-2.0,27.82,2 
TABS,ioos:station:wmo:42047:1,2009-08-05T17:00:00Z,27.8966,-93.5973,-2.0,28.4,2 
TABS,ioos:station:wmo:42047:1,2009-08-05T17:30:00Z,27.8966,-93.5973,-2.0,29.12,2 
TABS,ioos:station:wmo:42047:1,2009-08-05T18:00:00Z,27.8966,-93.5973,-2.0,29.71,2 
TABS,ioos:station:wmo:42047:1,2009-08-05T18:30:00Z,27.8966,-93.5973,-2.0,30.29,2 
TABS,ioos:station:wmo:42047:1,2009-08-05T19:00:00Z,27.8966,-93.5973,-2.0,30.93,2 
TABS,ioos:station:wmo:42047:1,2009-08-05T19:30:00Z,27.8966,-93.5973,-2.0,31.99,2 
TABS,ioos:station:wmo:42047:1,2009-08-05T20:00:00Z,27.8966,-93.5973,-2.0,33.45,2 
TABS,ioos:station:wmo:42047:1,2009-08-05T20:30:00Z,27.8966,-93.5973,-2.0,35.01,2 
TABS,ioos:station:wmo:42047:1,2009-08-05T21:00:00Z,27.8966,-93.5973,-2.0,36.34,2 
TABS,ioos:station:wmo:42047:1,2009-08-05T21:30:00Z,27.8966,-93.5973,-2.0,37.5,2 
TABS,ioos:station:wmo:42047:1,2009-08-05T22:00:00Z,27.8966,-93.5973,-2.0,38.22,2 
TABS,ioos:station:wmo:42047:1,2009-08-05T22:30:00Z,27.8966,-93.5973,-2.0,38.63,2 
TABS,ioos:station:wmo:42047:1,2009-08-05T23:00:00Z,27.8966,-93.5973,-2.0,38.84,2 
TABS,ioos:station:wmo:42047:1,2009-08-05T23:30:00Z,27.8966,-93.5973,-2.0,38.98,2 
TABS,ioos:station:wmo:42047:1,2009-08-06T00:00:00Z,27.8966,-93.5973,-2.0,38.68,2 
TABS,ioos:station:wmo:42047:1,2009-08-06T00:30:00Z,27.8966,-93.5973,-2.0,38.24,2 
TABS,ioos:station:wmo:42047:1,2009-08-06T01:00:00Z,27.8966,-93.5973,-2.0,37.38,2 
TABS,ioos:station:wmo:42047:1,2009-08-06T01:30:00Z,27.8966,-93.5973,-2.0,36.36,2 
TABS,ioos:station:wmo:42047:1,2009-08-06T02:00:00Z,27.8966,-93.5973,-2.0,35.22,2 
TABS,ioos:station:wmo:42047:1,2009-08-06T02:30:00Z,27.8966,-93.5973,-2.0,34.17,2 
TABS,ioos:station:wmo:42047:1,2009-08-06T03:00:00Z,27.8966,-93.5973,-2.0,33.38,2 
TABS,ioos:station:wmo:42047:1,2009-08-06T03:30:00Z,27.8966,-93.5973,-2.0,32.68,2 
TABS,ioos:station:wmo:42047:1,2009-08-06T04:00:00Z,27.8966,-93.5973,-2.0,32.07,2 
TABS,ioos:station:wmo:42047:1,2009-08-06T04:30:00Z,27.8966,-93.5973,-2.0,31.48,2 
TABS,ioos:station:wmo:42047:1,2009-08-06T05:00:00Z,27.8966,-93.5973,-2.0,30.97,2 
TABS,ioos:station:wmo:42047:1,2009-08-06T05:30:00Z,27.8966,-93.5973,-2.0,30.51,2 
TABS,ioos:station:wmo:42047:1,2009-08-06T06:00:00Z,27.8966,-93.5973,-2.0,30.08,2 
TABS,ioos:station:wmo:42047:1,2009-08-06T06:30:00Z,27.8966,-93.5973,-2.0,29.66,2 
TABS,ioos:station:wmo:42047:1,2009-08-06T07:00:00Z,27.8966,-93.5973,-2.0,29.25,2 
TABS,ioos:station:wmo:42047:1,2009-08-06T07:30:00Z,27.8966,-93.5973,-2.0,28.86,2 
TABS,ioos:station:wmo:42047:1,2009-08-06T08:00:00Z,27.8966,-93.5973,-2.0,28.45,2 
TABS,ioos:station:wmo:42047:1,2009-08-06T08:30:00Z,27.8966,-93.5973,-2.0,28.01,2 
TABS,ioos:station:wmo:42047:1,2009-08-06T09:00:00Z,27.8966,-93.5973,-2.0,27.57,2 
TABS,ioos:station:wmo:42047:1,2009-08-06T09:30:00Z,27.8966,-93.5973,-2.0,27.17,2 
TABS,ioos:station:wmo:42047:1,2009-08-06T10:00:00Z,27.8966,-93.5973,-2.0,26.82,2 
TABS,ioos:station:wmo:42047:1,2009-08-06T10:30:00Z,27.8966,-93.5973,-2.0,26.48,2 
TABS,ioos:station:wmo:42047:1,2009-08-06T11:00:00Z,27.8966,-93.5973,-2.0,26.19,2 
TABS,ioos:station:wmo:42047:1,2009-08-06T11:30:00Z,27.8966,-93.5973,-2.0,25.95,2 
TABS,ioos:station:wmo:42047:1,2009-08-06T12:00:00Z,27.8966,-93.5973,-2.0,25.74,2 
TABS,ioos:station:wmo:42047:1,2009-08-06T12:30:00Z,27.8966,-93.5973,-2.0,25.62,2 
TABS,ioos:station:wmo:42047:1,2009-08-06T13:00:00Z,27.8966,-93.5973,-2.0,25.61,2 
TABS,ioos:station:wmo:42047:1,2009-08-06T13:30:00Z,27.8966,-93.5973,-2.0,25.72,2 
TABS,ioos:station:wmo:42047:1,2009-08-06T14:00:00Z,27.8966,-93.5973,-2.0,25.98,2 
TABS,ioos:station:wmo:42047:1,2009-08-06T14:30:00Z,27.8966,-93.5973,-2.0,25.98,2 
TABS,ioos:station:wmo:42047:1,2009-08-06T15:00:00Z,27.8966,-93.5973,-2.0,25.98,2 
TABS,ioos:station:wmo:42047:1,2009-08-06T15:30:00Z,27.8966,-93.5973,-2.0,25.98,2 
TABS,ioos:station:wmo:42047:1,2009-08-06T16:00:00Z,27.8966,-93.5973,-2.0,25.98,2 
TABS,ioos:station:wmo:42047:1,2009-08-06T16:30:00Z,27.8966,-93.5973,-2.0,25.98,2 
TABS,ioos:station:wmo:42047:1,2009-08-06T17:00:00Z,27.8966,-93.5973,-2.0,25.98,2 
TABS,ioos:station:wmo:42047:1,2009-08-06T17:30:00Z,27.8966,-93.5973,-2.0,25.98,2 
TABS,ioos:station:wmo:42047:1,2009-08-06T18:00:00Z,27.8966,-93.5973,-2.0,25.98,2 
TABS,ioos:station:wmo:42047:1,2009-08-06T18:30:00Z,27.8966,-93.5973,-2.0,25.98,2 
TABS,ioos:station:wmo:42047:1,2009-08-07T00:00:00Z,27.8966,-93.5973,-2.0,0.0,2 
TABS,ioos:station:wmo:42047:1,2009-08-07T00:30:00Z,27.8966,-93.5973,-2.0,0.0,2 
TABS,ioos:station:wmo:42047:1,2009-08-07T01:00:00Z,27.8966,-93.5973,-2.0,0.0,2 
TABS,ioos:station:wmo:42047:1,2009-08-07T15:00:00Z,27.8966,-93.5973,-2.0,0.0,2 
TABS,ioos:station:wmo:42047:1,2009-08-07T15:30:00Z,27.8966,-93.5973,-2.0,0.0,2 
TABS,ioos:station:wmo:42047:1,2009-08-07T16:00:00Z,27.8966,-93.5973,-2.0,0.0,2 
TABS,ioos:station:wmo:42047:1,2009-08-07T16:30:00Z,27.8966,-93.5973,-2.0,0.0,2 
TABS,ioos:station:wmo:42047:1,2009-08-07T17:00:00Z,27.8966,-93.5973,-2.0,0.0,2 
TABS,ioos:station:wmo:42047:1,2009-08-07T17:30:00Z,27.8966,-93.5973,-2.0,0.0,2 
TABS,ioos:station:wmo:42047:1,2009-08-07T18:00:00Z,27.8966,-93.5973,-2.0,0.0,2 
TABS,ioos:station:wmo:42047:1,2009-08-07T18:30:00Z,27.8966,-93.5973,-2.0,0.0,2 
TABS,ioos:station:wmo:42047:1,2009-08-07T19:00:00Z,27.8966,-93.5973,-2.0,0.0,2 
TABS,ioos:station:wmo:42047:1,2009-08-07T19:30:00Z,27.8966,-93.5973,-2.0,0.0,2 
TABS,ioos:station:wmo:42047:1,2009-08-07T20:00:00Z,27.8966,-93.5973,-2.0,0.0,2 
TABS,ioos:station:wmo:42047:1,2009-08-07T20:30:00Z,27.8966,-93.5973,-2.0,0.0,2 
TABS,ioos:station:wmo:42047:1,2009-08-07T21:00:00Z,27.8966,-93.5973,-2.0,0.0,2 
TABS,ioos:station:wmo:42047:1,2009-08-07T21:30:00Z,27.8966,-93.5973,-2.0,0.0,2 
TABS,ioos:station:wmo:42047:1,2009-08-07T22:00:00Z,27.8966,-93.5973,-2.0,0.0,2 